RH
86 69 95 88 82 79 78 81 82 86 89 81 82 85 85 82 79 78 76 74 74 70 68 68 69 79 81 74 75 50 59 44 33 26 22 25 24 23 26 26 32 40 52
61 67 87 89 84 84 82 72 80 78 79 79 74 77 77 76 75 69 63 63 64 61 45 48 56 74 89 77 68 63 45 32 25 27 36 40 33 27 24 28 32 33 38
62 62 73 89 88 84 75 70 72 69 66 65 70 70 67 66 58 50 30 32 44 96 60 39 43 88 94 71 74 80 45 28 35 44 39 35 41 31 24 24 33 37 38
54 57 64 75 60 54 45 55 58 56 55 75 83 77 55 58 53 28 17 16 20 75 85 34 79 90 77 74 74 79 36 32 50 57 57 47 51 52 27 24 31 33 44
55 51 63 72 61 55 43 48 49 46 44 62 78 59 54 54 24 18 18 19 28 88 86 55 89 82 79 75 77 77 28 63 73 76 68 71 68 63 67 46 48 50 55
62 53 61 75 69 43 38 38 42 32 31 36 47 46 54 28 20 18 18 20 31 70 80 88 87 85 81 78 71 32 42 72 86 87 93 81 76 71 68 77 68 83 81
57 59 65 74 59 36 29 21 20 16 16 20 25 56 45 24 23 20 20 19 22 60 72 82 83 79 77 42 25 31 53 87 84 87 90 87 83 82 88 86 84 86 85
52 58 66 66 54 34 28 22 16 15 18 18 20 30 26 35 33 25 24 23 20 29 54 48 36 30 26 34 44 50 76 87 90 89 87 91 85 84 75 76 81 86 77
64 56 61 59 56 42 36 31 21 16 18 19 20 25 32 43 44 35 28 29 31 30 30 31 35 39 46 52 56 60 73 90 87 88 86 85 86 88 81 72 74 74 76
77 76 78 74 56 50 42 40 31 20 20 23 27 37 48 60 66 55 34 33 35 37 38 40 44 49 53 59 65 80 90 89 85 84 85 84 86 85 70 59 70 83 93
85 84 81 82 72 51 49 49 44 33 25 28 32 48 69 73 82 74 50 35 37 38 43 47 52 55 60 64 71 84 78 79 82 83 82 82 79 70 59 55 59 53 50
80 82 78 76 70 58 52 52 51 46 34 29 36 53 63 69 74 80 64 38 42 45 51 54 58 68 72 72 75 77 73 72 72 74 75 66 62 60 52 47 47 51 50
73 79 78 76 68 59 58 54 57 53 48 36 33 42 54 59 72 75 67 49 46 52 59 59 64 72 76 83 78 75 72 63 64 64 62 60 55 41 68 46 46 46 46
69 70 73 74 73 74 68 63 60 60 57 53 37 38 47 55 64 66 66 51 51 57 68 74 80 82 77 75 76 78 74 65 59 52 43 33 32 39 44 35 39 36 32
61 63 66 72 74 73 76 71 68 77 79 71 59 39 45 53 59 68 72 58 59 65 76 77 82 85 84 79 73 63 52 39 31 27 24 21 21 25 27 31 30 25 24
66 64 63 68 71 76 76 78 76 76 75 80 70 55 41 52 65 69 72 65 74 74 82 85 88 88 82 77 64 51 36 30 24 19 18 18 20 23 26 25 24 24 25
53 67 66 68 70 73 75 80 78 81 85 82 83 71 68 63 65 72 58 68 75 75 81 88 90 88 82 73 54 35 31 25 20 16 16 18 21 23 24 23 23 20 18
35 39 60 62 68 69 75 74 70 79 83 82 86 89 77 76 72 76 68 75 80 83 86 88 84 83 80 66 36 34 29 23 18 16 16 18 20 23 22 21 18 16 14
33 33 36 62 62 66 69 74 66 68 79 79 87 88 84 86 86 76 76 83 85 84 85 79 77 75 71 39 36 35 30 23 18 14 14 16 19 20 19 18 17 15 13
32 32 32 34 56 61 65 67 71 66 75 79 86 89 84 86 88 82 85 88 87 85 84 76 76 75 47 37 38 36 30 24 18 17 18 18 18 21 20 20 18 16 17
27 30 29 30 31 53 62 68 69 69 73 78 75 84 88 85 85 84 89 90 90 87 77 76 76 77 35 39 40 38 31 24 22 20 23 21 24 25 23 20 19 19 19
27 27 26 27 27 29 51 57 64 62 69 61 62 76 87 84 80 74 82 91 92 87 80 80 79 75 35 39 41 37 31 30 28 24 25 24 24 27 26 22 22 22 21
29 29 28 26 26 26 31 50 59 65 64 66 64 68 74 83 79 73 79 83 88 85 80 81 82 72 36 40 43 39 30 26 24 22 20 21 28 33 29 24 24 24 20
23 25 28 27 30 28 31 43 50 57 58 59 60 60 70 72 79 67 75 86 90 86 85 88 84 58 40 42 43 42 35 29 18 16 20 23 27 28 24 23 21 19 18
23 23 23 23 24 28 32 37 51 54 56 52 54 59 62 71 74 65 64 81 87 93 90 90 84 62 44 43 45 42 34 29 22 17 16 18 20 21 20 18 18 17 16
23 24 24 23 23 23 24 33 33 46 53 54 54 54 61 64 70 66 65 79 96 95 91 89 82 56 45 45 45 40 32 25 20 17 18 18 18 17 18 17 17 16 17
Wind_Speed
15 18 20 19 18 18 17 17 16 15 14 13 13 12 11 10 8 8 8 8 7 6 7 7 8 6 7 7 5 6 4 1 2 2 3 2 3 5 4 3 1 2 2
19 19 20 20 19 18 17 17 16 14 14 12 11 11 9 8 8 7 6 6 7 6 5 10 13 11 8 6 6 7 6 3 4 4 3 3 5 6 5 4 2 2 2
19 21 20 21 20 20 18 17 16 13 12 11 10 9 8 6 4 4 4 5 6 8 8 12 16 13 10 4 2 4 6 4 5 5 6 7 8 9 6 3 2 3 3
15 21 21 21 20 17 15 17 16 14 12 10 9 8 8 6 4 3 5 7 8 10 9 15 17 14 9 6 4 3 4 7 7 7 9 10 11 10 7 4 3 4 3
16 19 20 21 19 15 16 17 16 14 13 13 12 10 8 7 5 7 8 8 11 13 13 18 16 13 11 4 1 3 5 8 8 6 9 11 9 9 7 7 7 6 5
19 20 21 20 17 15 16 16 16 14 13 14 15 11 9 8 9 9 8 8 11 13 14 15 13 10 6 3 3 1 7 7 6 6 7 8 7 8 6 5 7 6 4
20 21 21 19 16 15 16 16 16 15 14 13 14 13 11 12 10 9 9 10 11 13 13 11 9 8 5 2 4 7 8 9 6 7 4 5 6 7 5 3 2 2 3
17 21 20 19 17 16 16 15 14 13 13 13 15 15 15 13 11 10 10 10 10 10 10 8 6 5 5 7 8 10 11 8 6 5 3 4 3 5 5 5 4 5 5
15 19 18 16 16 16 15 14 14 13 13 14 15 16 15 13 10 9 10 10 10 10 10 9 8 8 8 9 10 10 9 8 5 3 2 1 5 7 9 7 6 7 6
16 16 16 16 17 17 16 14 13 13 13 13 14 15 15 13 11 9 9 9 9 8 9 9 9 9 8 8 9 11 10 7 3 3 2 4 8 10 10 7 5 4 4
20 18 16 16 18 18 17 16 14 13 14 13 13 14 14 11 11 9 8 8 8 8 8 9 9 9 8 7 9 10 8 5 3 5 5 7 10 11 11 8 6 6 7
25 23 19 16 19 20 20 19 17 15 15 14 13 14 13 12 10 10 9 9 8 8 9 9 8 8 6 7 8 7 5 5 5 6 9 9 10 11 10 9 7 8 9
27 25 22 18 18 22 22 20 19 17 16 16 16 16 16 14 13 12 11 9 9 9 10 9 8 7 5 7 5 6 5 6 7 9 10 11 11 9 8 10 8 8 8
27 25 23 21 20 20 20 24 21 20 19 18 17 19 20 17 15 12 11 9 9 10 10 8 8 8 6 6 7 7 8 9 11 12 12 11 10 10 12 11 9 8 8
26 25 26 25 24 22 21 20 23 22 21 19 19 21 22 19 17 15 13 11 12 13 12 9 8 8 7 8 9 9 9 10 11 12 11 10 10 10 10 10 8 8 8
30 28 26 28 26 25 23 21 22 22 20 20 20 22 23 20 18 15 14 15 14 14 11 11 9 10 10 11 10 10 10 10 11 11 11 9 8 8 7 7 7 7 7
27 36 34 31 29 29 27 24 22 22 21 21 20 22 22 21 19 16 17 18 15 15 14 13 13 13 13 12 10 10 11 10 11 10 10 9 8 7 6 6 6 7 8
21 20 33 34 34 32 33 29 26 24 23 24 23 21 22 20 20 18 21 19 17 16 14 14 14 15 14 12 10 10 10 9 10 10 9 8 7 6 7 6 7 11 10
31 26 21 34 36 36 35 32 29 27 27 26 25 22 22 22 21 23 24 20 18 19 17 17 15 14 13 11 10 10 9 9 9 7 7 7 7 7 7 8 11 10 11
40 36 32 25 32 35 37 36 32 31 30 29 29 27 24 25 25 26 24 24 23 21 21 19 15 14 14 12 10 9 9 9 7 7 6 6 7 8 9 12 10 11 12
41 45 38 37 31 37 39 38 38 36 33 32 35 32 29 29 28 27 27 28 27 25 23 20 17 15 15 13 11 10 10 9 8 7 7 7 9 10 11 12 14 14 16
28 35 39 37 36 36 42 44 43 39 37 34 34 33 32 33 29 29 28 31 30 28 27 23 19 17 17 15 11 10 7 8 11 9 9 10 10 11 13 14 16 18 21
31 26 26 37 40 35 39 43 44 41 39 37 35 36 37 38 34 31 30 30 33 32 28 24 20 19 18 16 13 10 6 6 6 10 11 13 13 14 15 16 19 21 25
34 32 30 25 27 34 33 43 46 46 45 41 39 38 41 39 37 33 33 36 34 32 28 25 22 20 18 17 14 13 12 11 6 5 9 12 14 15 16 18 22 24 23
26 26 29 30 29 25 29 29 42 48 47 44 42 38 40 41 41 35 35 37 36 33 30 28 25 21 19 18 15 12 12 11 12 12 10 11 14 16 20 21 20 22 21
20 23 26 25 25 30 34 33 34 42 47 44 41 42 42 42 42 39 38 38 33 29 31 27 24 21 20 18 15 13 12 11 11 12 13 17 19 21 19 20 19 20 19
Wind_Direction
172 167 163 162 160 162 164 163 162 168 168 175 180 185 194 205 215 226 232 231 233 230 219 201 162 158 142 118 64 76 96 138 196 211 198 139 89 73 57 31 23 53 72
164 169 163 165 165 164 167 167 168 167 176 183 189 191 198 209 219 230 235 228 219 214 188 179 163 165 152 127 76 67 56 78 131 132 114 97 71 66 58 41 46 42 63
172 168 166 167 165 163 168 167 172 176 180 187 188 190 194 203 212 220 227 209 191 122 136 153 154 157 159 134 112 31 26 83 109 98 86 84 64 53 51 56 74 75 76
181 173 172 173 169 171 174 177 175 179 179 177 180 192 193 186 194 201 157 157 155 133 131 141 142 150 165 182 147 22 35 110 108 102 77 80 60 51 55 69 66 56 60
185 184 176 174 170 178 175 174 176 179 181 181 188 202 170 172 169 145 140 145 149 142 143 146 149 165 180 156 78 353 113 116 104 104 83 70 51 44 48 73 68 60 50
187 187 182 177 177 179 177 175 177 180 185 188 197 192 173 164 151 139 135 140 152 157 149 151 162 170 166 208 277 130 133 117 100 94 84 40 38 32 19 34 44 14 5
185 186 182 179 180 179 176 177 177 176 180 185 187 184 176 159 147 135 129 133 146 166 169 172 184 194 209 210 139 140 143 133 122 102 71 27 46 22 34 23 347 358 20
189 188 183 182 183 179 177 175 173 172 169 169 176 176 167 156 145 137 132 129 132 143 161 167 166 158 143 131 128 137 140 146 120 111 48 51 24 324 325 325 312 298 314
189 186 183 190 190 184 181 175 174 172 168 164 163 166 163 155 144 138 140 138 136 138 142 144 141 136 129 123 126 134 150 156 144 123 72 321 293 304 327 317 304 319 314
192 194 197 199 195 191 186 181 178 175 171 168 168 171 174 171 160 151 148 148 145 145 144 143 144 141 134 131 136 141 156 171 162 162 236 266 293 309 313 313 321 269 282
202 204 208 216 213 203 196 189 184 180 179 177 176 173 177 178 180 167 162 158 156 155 152 152 154 153 147 147 156 169 189 201 214 215 251 280 294 301 306 295 280 284 289
207 209 212 225 218 210 204 199 193 190 188 189 186 186 184 185 189 185 175 168 164 163 161 167 167 166 167 159 169 192 213 241 250 256 273 283 290 298 290 282 284 285 291
213 210 214 221 220 218 213 207 202 199 198 194 194 194 194 193 187 186 189 188 181 178 179 182 182 182 178 191 217 241 258 263 270 275 275 281 287 287 276 282 287 286 289
217 226 228 222 218 217 222 221 215 208 206 203 199 200 201 199 197 186 190 201 196 192 191 190 190 197 218 230 242 250 259 265 270 274 277 280 280 268 270 293 290 288 294
222 227 233 228 221 220 219 220 218 214 218 215 209 208 208 206 206 201 204 208 198 199 199 200 204 222 259 259 250 250 261 275 281 283 284 283 277 273 275 279 282 294 300
222 229 232 231 229 226 225 221 222 221 225 221 213 210 210 210 214 211 218 211 205 204 211 213 229 235 259 254 252 258 269 279 286 290 291 291 284 276 271 277 286 291 299
229 228 235 234 231 231 232 227 226 225 222 221 216 214 214 213 214 215 217 211 211 211 211 219 231 240 248 244 252 268 279 287 290 291 291 293 288 286 288 288 292 300 302
244 233 232 234 233 232 234 230 228 227 223 224 219 221 215 216 217 223 218 213 216 215 217 230 241 246 241 242 251 264 274 280 289 293 289 291 290 290 286 287 299 308 307
240 245 244 235 228 229 234 235 236 230 224 219 223 229 223 223 223 220 216 216 222 222 224 233 239 237 232 236 252 265 270 273 287 284 286 290 288 293 294 302 315 314 314
240 242 247 248 236 231 232 235 234 233 231 224 223 227 227 224 227 220 219 221 227 226 228 231 236 233 228 234 249 261 266 273 273 283 284 283 287 292 296 311 312 314 315
241 245 247 247 248 235 229 228 232 230 228 226 222 224 226 225 227 223 224 225 231 233 232 231 236 231 228 234 243 251 258 260 260 263 265 265 282 282 294 302 306 310 311
245 242 243 247 248 244 235 232 229 229 231 235 232 226 221 232 232 233 229 228 234 234 228 231 237 236 229 232 240 250 254 251 249 246 260 266 268 276 290 298 305 308 310
250 249 247 243 246 248 242 234 232 232 230 229 231 228 222 229 234 237 231 233 235 233 232 235 236 236 234 235 241 238 241 238 228 260 254 254 258 268 281 291 299 303 305
251 252 251 251 245 248 247 238 233 229 228 227 228 230 224 226 233 240 238 232 234 229 227 232 233 231 235 239 240 243 246 257 263 259 257 253 259 264 276 289 296 297 297
249 247 250 251 249 247 251 246 238 236 236 229 230 229 227 228 229 240 239 235 234 225 223 228 230 234 236 240 243 248 253 260 263 257 264 255 258 266 281 291 294 297 297
256 255 246 242 244 249 249 249 246 239 238 233 231 229 225 226 230 238 235 234 231 227 226 229 231 231 233 239 245 250 258 263 268 268 270 279 282 286 288 294 296 299 299